DW2806 Weather Reports


time (UTC)temp
F
wind
direction
speed
knots
gust
knots
rain 1hr
in
rain 24hr
in
rain mn
in
humidity
%
barometer
mb
20260507230034 60 26 0.0 0.0 0.00 0.00 0.00 38 1025.7
20260507224535 60 27 0.0 0.0 0.00 0.00 0.00 37 1025.7
20260507223034 61 26 0.0 3.5 0.00 0.00 0.00 37 1025.7
20260507221533 61 68 0.0 5.2 0.00 0.00 0.00 38 1025.7
20260507220033 62 65 0.0 1.7 0.00 0.00 0.00 36 1025.7
20260507214531 62 64 0.0 4.3 0.00 0.00 0.00 36 1025.7
20260507213035 62 98 0.9 6.1 0.00 0.00 0.00 37 1025.7
20260507211533 63 47 1.7 7.0 0.00 0.00 0.00 37 1025.7
20260507210030 63 329 0.0 3.5 0.00 0.00 0.00 35 1025.7
20260507204529 63 81 0.0 7.0 0.00 0.00 0.00 36 1025.7
20260507203031 63 20 0.0 6.1 0.00 0.00 0.00 36 1025.7
20260507201529 63 13 0.0 4.3 0.00 0.00 0.00 35 1025.7
20260507200027 63 6 0.0 4.3 0.00 0.00 0.00 34 1025.7
20260507194531 64 54 0.0 5.2 0.00 0.00 0.00 34 1025.7
20260507193026 64 71 0.0 5.2 0.00 0.00 0.00 33 1025.7
20260507191524 64 50 0.9 7.0 0.00 0.00 0.00 33 1025.7
20260507190023 65 36 0.0 4.3 0.00 0.00 0.00 33 1025.7
20260507184521 65 324 0.0 6.1 0.00 0.00 0.00 33 1025.7
20260507183020 65 88 2.6 7.0 0.00 0.00 0.00 36 1025.7
20260507181518 65 61 0.9 7.0 0.00 0.00 0.00 34 1025.7
20260507180016 65 33 0.0 4.3 0.00 0.00 0.00 39 1025.7
20260507174516 65 77 0.9 6.1 0.00 0.00 0.00 37 1025.7
20260507173026 65 339 0.0 5.2 0.00 0.00 0.00 39 1025.7
20260507171513 64 79 1.7 7.8 0.00 0.00 0.00 43 1025.7
20260507170008 63 88 0.0 6.1 0.00 0.00 0.00 52 1025.7
20260507164507 63 280 0.9 5.2 0.00 0.00 0.00 56 1025.7
20260507163006 61 12 0.0 4.3 0.00 0.00 0.00 56 1025.7
20260507161514 64 29 0.0 1.7 0.00 0.00 0.00 55 1025.7
20260507160003 64 51 0.0 4.3 0.00 0.00 0.00 56 1025.7
20260507154600 62 14 0.0 3.5 0.00 0.00 0.00 57 1025.7
20260507153058 62 45 0.0 3.5 0.00 0.00 0.00 54 1025.7
20260507151558 62 14 0.0 6.1 0.00 0.00 0.00 57 1025.7
20260507150055 62 27 0.0 1.7 0.00 0.00 0.00 52 1025.7
20260507144614 61 307 0.0 3.5 0.00 0.00 0.00 55 1025.7
20260507143049 61 109 0.0 3.5 0.00 0.00 0.00 58 1025.7
20260507141553 60 125 0.0 3.5 0.00 0.00 0.00 59 1025.7
20260507140039 59 45 0.0 1.7 0.00 0.00 0.00 60 1025.7
20260507134537 58 46 0.0 4.3 0.00 0.00 0.00 64 1025.7
20260507133036 57 244 0.0 0.9 0.00 0.00 0.00 66 1025.7
20260507131527 56 37 0.0 1.7 0.00 0.00 0.00 72 1025.7
20260507130022 55 52 0.0 0.0 0.00 0.00 0.00 77 1025.7
20260507124517 53 54 0.0 6.1 0.00 0.00 0.00 77 1025.7
20260507123013 52 72 0.0 3.5 0.00 0.00 0.00 77 1025.7
20260507121512 51 72 0.0 0.0 0.00 0.00 0.00 82 1025.7
20260507120010 50 151 0.0 0.0 0.00 0.00 0.00 83 1025.7
20260507114509 50 151 0.0 0.0 0.00 0.00 0.00 85 1025.7
20260507113012 49 151 0.0 0.0 0.00 0.00 0.00 86 1025.7
20260507111506 49 151 0.0 0.0 0.00 0.00 0.00 88 1025.7
20260507110005 49 151 0.0 0.0 0.00 0.00 0.00 89 1025.7
20260507104503 49 152 0.0 0.0 0.00 0.00 0.00 90 1025.7
20260507103003 49 151 0.0 0.0 0.00 0.00 0.00 90 1025.7
20260507101501 49 151 0.0 0.0 0.00 0.00 0.00 91 1025.7
20260507100059 49 151 0.0 0.0 0.00 0.00 0.00 90 1025.7
20260507094558 49 151 0.0 0.0 0.00 0.00 0.00 90 1025.7
20260507093100 49 151 0.0 0.0 0.00 0.00 0.00 90 1025.7
20260507091559 49 152 0.0 0.0 0.00 0.00 0.00 89 1025.7
20260507090054 50 151 0.0 0.0 0.00 0.00 0.00 90 1025.7
20260507084553 50 152 0.0 0.0 0.00 0.00 0.00 91 1025.7
20260507083051 50 152 0.0 0.0 0.00 0.00 0.00 90 1025.7
20260507081548 51 152 0.0 1.7 0.00 0.00 0.00 90 1025.7
20260507080047 52 98 0.0 0.0 0.00 0.00 0.00 89 1025.7
20260507074545 52 98 0.0 0.0 0.00 0.00 0.00 88 1025.7
20260507073043 52 98 0.0 0.0 0.00 0.00 0.00 89 1025.7
20260507071542 52 98 0.0 0.0 0.00 0.00 0.00 90 1025.7
20260507070044 52 98 0.0 0.0 0.00 0.00 0.00 90 1025.7
20260507064542 52 98 0.0 0.0 0.00 0.00 0.00 89 1025.7
20260507063046 52 98 0.0 0.0 0.00 0.00 0.00 88 1025.7
20260507061538 53 98 0.0 0.0 0.00 0.00 0.00 90 1025.7
20260507060048 53 98 0.0 0.0 0.00 0.00 0.00 90 1025.7
20260507054544 54 98 0.0 3.5 0.00 0.00 0.00 90 1025.7
20260507053031 55 3 0.0 0.0 0.00 0.00 0.00 91 1025.7
20260507051529 56 3 0.0 0.0 0.00 0.00 0.00 92 1025.7
20260507050026 57 3 0.0 1.7 0.00 0.00 0.00 92 1025.7
20260507044544 57 273 0.0 0.0 0.00 0.00 0.00 92 1025.7
20260507043022 58 273 0.0 0.0 0.00 0.00 0.00 92 1025.7
20260507041519 59 273 0.0 0.0 0.00 0.00 0.00 93 1025.7
20260507040017 59 273 0.0 0.0 0.00 0.00 0.00 93 1025.7
20260507034516 59 273 0.0 0.0 0.00 0.00 0.00 93 1025.7
20260507033016 59 273 0.0 1.7 0.00 0.00 0.00 93 1025.7
20260507031516 59 271 0.0 0.0 0.00 0.00 0.00 93 1025.7
20260507030016 59 270 0.0 0.0 0.00 0.00 0.00 93 1025.7
20260507024515 59 246 0.0 0.0 0.00 0.00 0.00 93 1025.7
20260507023014 59 244 0.0 0.0 0.00 0.00 0.00 93 1025.7
20260507021519 59 244 0.0 0.0 0.00 0.00 0.00 93 1025.7
20260507020013 59 244 0.0 0.0 0.00 0.00 0.00 93 1025.7
20260507014513 59 243 0.0 0.0 0.00 0.00 0.00 93 1025.7
20260507013011 59 243 0.0 0.0 0.00 0.00 0.00 93 1025.7
20260507011511 59 243 0.0 0.0 0.00 0.00 0.00 93 1025.7
20260507010011 59 244 0.0 3.5 0.00 0.00 0.00 93 1025.7
20260507004510 59 259 0.0 4.3 0.00 0.00 0.00 93 1025.7
20260507003015 59 254 0.0 0.0 0.00 0.00 0.00 93 1025.7
20260507001516 59 254 0.0 0.0 0.00 0.00 0.00 93 1025.7
20260507000012 60 252 0.0 0.0 0.00 0.00 0.00 92 1025.7
20260506234507 60 252 0.0 0.9 0.00 0.00 0.00 92 1025.7
20260506233003 60 308 0.0 0.0 0.00 0.00 0.00 92 1025.7
20260506231506 60 308 0.0 0.0 0.00 0.00 0.00 92 1025.7